Location: Newark
(5.8900°S, 42.6378°W)
Time: 15:22:35
(UTC+00:00)

Vanguard 1 Rocket - Pass Details

Date: 22 October 2019
Orbit: 651 x 4225 km, 34.3° (Epoch: 11 November)

Event Time Altitude Azimuth Distance (km) Brightness Sun altitude
Rises 17:59:56 0° 323° (NW) 7,935 12.5 39.1°
Reaches altitude 10° 18:06:25 10° 333° (NNW) 7,207 12.3 37.5°
Maximum altitude 18:28:36 34° 31° (NNE) 5,453 11.3 32.1°
Drops below altitude 10° 18:46:47 10° 88° (E) 6,110 11.1 27.6°
Sets 18:51:26 0° 97° (E) 6,681 11.3 26.5°
